sat.trackr.live / text

‹ back to catalog

STARLINK-2637

NORAD 48356 · 2021-038D

PAYLOAD ACTIVE UNKNOWN

§ Identity

Operator
Country
US
Launch date
2021-05-04
Launch site
AFETR
Launch vehicle
Mass (kg)
RCS (m²)

Purposes: comms

External: N2YO · Heavens-Above · Gunter

§ Orbital elements

Epoch: 2026-09-19T21:04:33.718656Z

Period
94.01 min
Inclination
53.1592°
Eccentricity
0.0001288
Mean motion
15.31796187 rev/d
Perigee alt
469.6 km
Apogee alt
471.3 km
Semi-major
6,848.6 km
B*
2.2919e-4
RAAN
174.6850°
Arg perigee
88.9954°
Mean anomaly
271.1195°
Rev number
29,683

§ Raw data

STARLINK-26371 48356U 21038D   26262.87816804  .00006774  00000+0  22919-3 0  99992 48356  53.1592 174.6850 0001288  88.9954 271.1195 15.31796187296838

JSON: /api/v1/satellites/48356 · /tle

For live sub-satellite position, see the globe view (requires WebGL).

§ Visibility from observer

Set your observer location to see the next 7 days of passes ≥ 10°. The values pass through the URL so the page stays shareable.

No JS? Fill the form by hand. The geolocation button needs JavaScript.